Location: Felling
(48.4667°N, 15.4167°E)
Time: 19:52:09
(UTC+00:00)

Daily predictions for brighter satellites

Satellite Brightness Start Highest point End
(mag) Time Altitude Azimuth Time Altitude Azimuth Time Altitude Azimuth
Cosmos 1726 Rocket 3.6 18:28:13 10° S 18:32:32 64° E 18:36:52 10° NNE
Cosmos 2322 3.7 18:27:02 10° NNW 18:32:44 78° ENE 18:38:23 10° SSE
Cosmos 1825 3.0 18:29:34 10° N 18:33:03 33° ENE 18:36:30 10° SE
Helios 1A Rocket 3.6 18:29:28 10° S 18:33:28 57° WSW 18:37:32 10° NNW
CZ-4C R/B 2.7 18:28:43 10° SW 18:33:44 63° NW 18:39:51 10° NE
Ariane Rocket 3.2 18:29:17 10° SE 18:34:10 53° ENE 18:39:05 10° N
Cosmos 2344 3.9 18:27:42 10° S 18:34:36 41° ESE 18:41:42 10° NE
Cosmos 1269 Rocket 4.1 18:30:39 10° SSW 18:35:57 87° WNW 18:41:19 10° NNE
Cosmos 2228 3.3 18:34:31 10° SSW 18:38:52 75° W 18:43:12 10° N
MetOp-A 4.3 18:35:36 10° S 18:40:58 79° WSW 18:46:22 10° NNW
Cosmos 1408 2.5 18:38:07 10° N 18:41:41 69° E 18:45:13 10° SSE
Cosmos 482 Debris 2.9 18:39:53 10° WSW 18:42:41 82° NNW 18:44:43 10° ENE
RESURS DK-1 3.0 18:41:24 10° S 18:45:06 33° ESE 18:48:51 10° NE
SL-16 R/B 4.1 18:47:33 10° N 18:51:19 18° NE 18:55:04 10° ENE
Cosmos 2058 3.1 18:48:38 10° N 18:52:47 54° ENE 18:56:52 10° SSE
CZ-2C R/B 4.0 18:49:14 10° N 18:54:08 43° WNW 18:59:03 10° SW
Cosmos 1992 Rocket 4.0 18:51:01 10° NNW 18:56:16 87° ENE 19:01:29 10° SSE
Cosmos 2360 Rocket 3.7 18:53:18 10° NW 18:58:25 36° WSW 19:03:30 10° S
Cosmos 2058 Rocket 3.0 18:54:10 10° S 18:58:30 73° E 19:02:52 10° NNE
ATLAS 3B R/B 2.8 18:52:22 10° NW 18:59:23 81° NE 19:05:56 14° SE
COSMOS 2428 2.7 18:56:26 10° NNW 19:02:14 88° ENE 19:07:47 11° SSE
Cosmos 1953 Rocket 4.3 18:58:01 10° NNW 19:02:18 55° W 19:06:32 10° S
COSMOS 2487 2.5 18:59:11 10° SSW 19:02:35 77° WNW 19:06:01 10° NNE
USA 186 3.5 19:00:21 10° SSW 19:03:17 32° W 19:06:09 10° NNW
USA 215 3.5 18:58:18 12° ESE 19:04:21 68° NNE 19:10:52 10° NW
SME Rocket 4.3 19:01:25 10° N 19:05:04 46° WNW 19:09:28 10° SW
Cosmos 1092 Rocket 4.1 18:59:30 10° N 19:05:47 81° W 19:11:59 10° S
Cosmos 2151 4.3 19:02:59 10° NNE 19:06:34 25° ENE 19:08:41 17° ESE
Cosmos 1076 Rocket 3.9 19:06:08 10° N 19:10:21 45° ENE 19:13:19 18° SE
Cosmos 1818 3.7 19:07:22 10° SSW 19:12:37 51° ESE 19:17:55 10° NE
OPS 8737 4.4 19:10:12 10° NW 19:13:17 74° NE 19:15:35 22° SE
Cosmos 1812 Rocket 4.4 19:10:52 16° SE 19:13:41 32° E 19:17:40 10° NNE
FALCON 9 DEB 3.5 19:10:32 10° SW 19:13:47 42° SE 19:16:30 14° ENE
NOSS 0 Rocket 4.0 19:08:02 10° NNW 19:14:15 70° ENE 19:19:06 17° SE
ERS-2 4.4 19:11:09 10° N 19:14:21 29° WNW 19:17:31 10° SW
Cosmos 909 Rocket 4.1 19:08:16 10° SSW 19:14:25 53° ESE 19:20:38 10° NE
Cosmos 2219 Rocket 2.6 19:09:57 10° NNW 19:15:36 65° WSW 19:21:12 10° SSE
Cosmos 407 Rocket 4.5 19:13:32 17° SE 19:16:12 25° E 19:20:24 10° NE
Resurs 01 Rocket 1.7 19:12:45 15° SSE 19:16:25 66° ENE 19:20:51 10° N
Cosmos 44 3.4 19:12:01 10° SSW 19:17:02 62° ESE 19:22:22 10° NE
SL-24 R/B - RUBIN 2 4.5 19:10:25 10° SSW 19:17:04 72° SE 19:23:22 10° NE
ERS-1 Rocket 4.4 19:14:40 15° E 19:17:14 23° ENE 19:21:06 10° N
Cosmos 1455 2.5 19:16:07 10° SSW 19:19:51 68° W 19:23:35 10° N
ATLAS 5 CENTAUR R/B 4.2 19:21:13 10° WNW 19:24:33 21° NNW 19:28:17 10° NNE
Resurs 1-3 4.1 19:23:37 10° S 19:27:57 59° W 19:32:19 10° NNW
Cosmos 1633 3.2 19:25:39 10° N 19:29:02 37° ENE 19:30:05 29° ESE
IGS 5A 3.4 19:27:42 21° SSE 19:30:26 75° ENE 19:34:36 10° N
Cosmos 1356 3.3 19:27:00 10° N 19:30:26 82° ENE 19:32:13 26° SSE
Lacrosse 5 rocket 3.3 19:28:46 10° WNW 19:32:24 28° N 19:36:11 10° NE
ATLAS 5 CENTAUR R/B 2.9 19:31:07 10° W 19:32:29 16° SW 19:33:14 14° SSW
Cosmos 1809 Rocket 4.4 19:26:24 10° N 19:32:30 67° ENE 19:36:59 19° SSE
Cosmos 405 Rocket 2.8 19:30:46 10° NNW 19:34:48 85° W 19:37:21 21° S
Cosmos 2292 Rocket 4.4 19:28:12 10° N 19:35:27 78° E 19:39:36 19° SSE
BREEZE-M DEB (TANK) 4.3 19:23:42 10° W 19:39:10 83° N 19:42:11 20° E
Cosmos 1140 Rocket 4.0 19:38:38 25° SE 19:40:42 35° ESE 19:45:20 10° NE
IRIDIUM 106 4.3 19:36:08 14° S 19:40:42 74° E 19:45:56 10° N
SPOT 5 3.8 19:40:17 24° E 19:41:52 31° ENE 19:46:00 10° N
Cosmos 2279 Rocket 3.9 19:35:59 10° S 19:42:10 81° E 19:48:24 10° N
Cosmos 2237 Rocket 2.2 19:36:50 10° NNW 19:42:30 72° ENE 19:45:36 27° SE
Exosat Rocket 4.3 19:36:34 10° NNW 19:43:03 57° WSW 19:47:11 16° S
Spot 2 Rocket 3.8 19:41:32 27° SE 19:44:02 53° ENE 19:48:58 10° N
BREEZE-M DEB (TANK) 3.7 19:40:15 10° W 19:44:42 69° S 19:48:44 19° E
BREEZE-M DEB (TANK) 4.3 19:43:01 10° W 19:46:37 87° N 19:57:33 10° E
SL-8 R/B 4.3 19:42:30 10° W 19:47:06 44° SSW 19:48:58 30° SSE
CZ-2C R/B 3.6 19:43:23 10° NNE 19:47:50 65° ESE 19:50:38 22° S
OBJECT-B 3.7 19:48:40 10° WSW 19:50:25 14° W 19:52:10 10° WNW
Terra 3.0 19:50:06 25° E 19:51:27 29° ENE 19:55:32 10° N
Meteor 2-14 Rocket 4.4 19:46:39 10° N 19:52:45 78° E 19:56:27 25° SSE
MetOp-B 4.2 19:52:09 22° S 19:55:39 81° WSW 20:01:04 10° NNW
Cosmos 2227 Rocket 2.6 19:57:04 31° SSE 19:58:58 40° ESE 20:04:13 10° NE
SPOT 1/Viking Rocket 3.5 19:58:13 29° SSE 20:01:00 90° E 20:06:17 10° NNW
Cosmos 389 Rocket 2.9 20:00:14 20° SSW 20:02:29 61° WNW 20:06:01 10° N
Cosmos 2251 Rocket 4.1 19:57:35 10° SW 20:02:53 59° WNW 20:08:11 10° NNE
Cosmos 2333 Rocket 4.1 20:00:58 10° NW 20:05:29 24° WSW 20:09:57 10° SSW
Cosmos 2297 Rocket 2.2 20:02:12 18° S 20:06:18 58° ESE 20:11:52 10° NE
Cosmos 2266 Rocket 4.0 20:00:05 10° N 20:06:31 77° E 20:09:47 31° SSE
SPOT 3 Rocket 4.3 20:03:45 16° S 20:07:38 49° W 20:12:41 10° NNW
BREEZE-M DEB (TANK) 2.8 20:06:44 10° W 20:08:17 37° WSW 20:08:17 37° WSW
Cosmos 2219 3.2 20:05:52 25° S 20:08:57 55° ESE 20:14:26 10° NE
Cosmos 1190 Rocket 4.1 20:07:40 35° SSE 20:09:32 54° ESE 20:14:38 10° NNE
ATLAS 2AS CENTAUR R/B 3.8 20:02:49 10° WSW 20:10:31 52° NW 20:18:01 10° NE
ARIANE 5 R/B 2.5 20:09:20 45° SSE 20:10:40 84° ENE 20:15:04 10° NNW
Meteor 2-21 Rocket 4.3 20:07:16 10° N 20:13:22 87° E 20:16:19 33° S
Timation 2 Rocket 4.1 20:10:14 19° S 20:14:51 56° ESE 20:21:02 10° NE
Orbus 7S? 4.5 20:18:01 10° W 20:21:14 51° NNW 20:27:56 10° ENE
Cosmos 1763 Rocket 4.3 20:17:13 10° N 20:21:53 35° ENE 20:22:57 31° E
RESURS DK-1 4.3 20:19:29 10° WSW 20:23:09 30° NW 20:26:51 10° NNE
Genesis I 3.1 20:21:07 10° NW 20:25:09 82° NE 20:25:22 77° ESE
USA 245 3.9 20:24:37 40° SW 20:25:32 49° WSW 20:28:52 10° NNW
Meteor 2-16 Rocket 4.4 20:20:38 10° N 20:26:49 89° W 20:29:26 37° S
Cosmos-2242 3.0 20:25:50 49° SSW 20:26:58 83° W 20:31:19 10° N
Cosmos 676 Rocket 4.2 20:26:56 46° ESE 20:26:59 46° ESE 20:31:56 10° NNE
Cosmos 1408 Rocket 4.3 20:25:09 10° N 20:29:01 37° ENE 20:29:01 37° ENE
JB-3 4.2 20:26:53 10° NNE 20:31:01 80° E 20:31:09 78° SE
Cosmos 1655 Rocket 4.4 20:28:07 10° NNW 20:34:17 60° W 20:37:46 26° SSW
SL-16 R/B 2.2 20:30:49 10° NNW 20:36:31 70° ENE 20:37:53 51° ESE
NOSS 3-1 (C) 4.5 20:30:04 10° NW 20:37:03 52° NE 20:41:19 28° E
Cosmos 1980 4.5 20:32:11 10° NW 20:37:34 44° WSW 20:39:45 30° SSW
Cosmos 2151 4.3 20:40:01 10° NNW 20:43:57 35° W 20:45:17 28° SW
Meteor 2-3 Rocket 4.3 20:40:31 10° NNW 20:46:09 55° W 20:48:26 34° SSW
USA 215 3.7 20:45:38 39° S 20:47:33 49° SW 20:53:53 10° WNW
Cosmos 2344 4.3 20:41:29 10° WSW 20:48:43 54° NW 20:56:53 10° NE
ATLAS 3B R/B 4.2 20:43:47 10° WNW 20:49:30 27° WSW 20:53:12 18° SSW
Meteor 1-27 4.3 20:47:48 39° SSW 20:50:02 81° W 20:55:54 10° N
FALCON 9 DEB 4.4 20:47:19 10° W 20:49:45 38° WNW 20:49:45 38° WNW
Cosmos 2221 3.6 20:53:18 33° NE 20:53:18 33° NE 20:56:06 10° NNE
Resurs 01 Rocket 4.2 20:50:44 10° SW 20:53:22 15° W 20:56:01 10° NW
Cosmos 1553 Rocket 4.3 20:54:34 43° E 20:54:51 43° E 21:00:34 10° NNE
ERS-1 Rocket 3.3 20:54:40 49° SW 20:55:39 58° W 21:00:38 10° NNW
Cosmos 407 Rocket 4.3 20:53:35 14° SW 20:57:53 49° WNW 21:02:56 10° NNE
Okean 3 Rocket 3.9 20:54:34 10° NNW 20:59:04 60° W 20:59:21 58° WSW
Cosmos 1766 Rocket 4.0 20:59:11 10° NNW 21:03:24 53° W 21:03:29 52° W
Cosmos 1500 Rocket 4.3 21:00:02 10° N 21:03:43 43° NE 21:03:43 43° NE
Cosmos 1943 4.2 21:00:55 10° NNW 21:06:03 35° NE 21:07:11 32° ENE
Meteor 1-4 Rocket 4.0 21:10:11 35° NNW 21:10:11 35° NNW 21:12:28 10° N
Meteor 2-15 4.3 21:09:37 60° S 21:10:51 90° E 21:16:57 10° N
ALOS 2 4.5 21:12:33 21° NE 21:12:33 21° NE 21:15:26 10° NNE
Lacrosse 5 rocket 3.2 21:08:45 10° NW 21:12:32 29° NNE 21:14:11 23° NE
Cosmos 1954 Rocket 4.0 21:12:16 61° SW 21:13:06 75° WNW 21:18:17 10° NNE
Meteor 2-2 Rocket 4.1 21:18:00 75° SE 21:18:22 79° E 21:24:06 10° NNE
Cosmos 1869 4.4 21:18:39 41° WNW 21:18:39 41° WNW 21:22:15 10° N
COSMOS 2455 2.7 21:18:16 72° S 21:18:49 79° ESE 21:24:52 10° NE
SPOT 5 3.8 21:19:30 34° WSW 21:19:53 34° W 21:24:11 10° NNW
Cosmos 2237 Rocket 4.0 21:21:56 10° NW 21:25:57 20° W 21:27:26 18° WSW
SeaSat 1 3.2 21:21:15 10° NE 21:24:37 40° ENE 21:24:37 40° ENE
Terra 2.7 21:28:59 40° W 21:29:04 40° W 21:33:34 10° NNW
Timation 1 Rocket 4.4 21:33:37 54° SW 21:34:59 75° WNW 21:40:59 10° NNE
Cosmos 2082 3.8 21:39:13 59° WSW 21:40:04 69° WNW 21:45:42 10° NNE
Cosmos 2263 Rocket 3.1 21:42:46 35° ENE 21:42:46 35° ENE 21:46:25 10° NE
Cosmos 2227 Rocket 3.4 21:38:45 15° WSW 21:43:03 39° NW 21:48:22 10° NNE
Cosmos 468 Rocket 4.5 21:39:11 10° NNW 21:43:44 50° W 21:43:44 50° W
USA 229 DEB 3.9 21:37:02 10° NW 21:44:19 74° NE 21:46:08 54° ESE
USA 229 3.9 21:37:08 10° NW 21:44:24 73° NE 21:46:15 54° ESE
Cosmos 1842 Rocket 4.5 21:49:34 46° NW 21:49:34 46° NW 21:53:15 10° N
Cosmos 2297 Rocket 3.9 21:45:48 10° WSW 21:50:42 30° NW 21:55:40 10° NNE
Cosmos 1603 3.7 21:44:57 10° NNW 21:50:37 71° NE 21:50:37 71° NE
Cosmos 841 Rocket 3.6 21:46:52 10° NNW 21:51:30 70° NNW 21:51:30 70° NNW
Cosmos 1745 Rocket 3.9 21:49:52 10° N 21:56:14 82° W 21:56:33 79° SW
Cosmos 1814 Rocket 4.2 21:54:39 10° NNW 21:59:24 67° NNE 21:59:24 67° NNE
Cosmos 1709 Rocket 4.0 21:55:48 10° N 22:02:02 68° ENE 22:02:05 68° E
NOSS 3-1 (A) 4.0 21:54:46 10° NW 22:02:11 83° NE 22:04:04 58° SE
Cosmos 921 Rocket 4.1 21:58:46 10° NNW 22:01:48 43° NNW 22:01:48 43° NNW
Meteor 1-25 Rocket 4.3 22:02:26 10° N 22:07:50 71° NE 22:07:50 71° NE
S3M 3.9 22:08:54 76° WSW 22:09:17 79° W 22:15:44 10° N
Spot 4 4.5 22:11:46 53° NW 22:11:46 53° NW 22:15:38 10° NNW
Cosmos 883 Rocket 4.4 22:14:36 76° ENE 22:14:36 76° ENE 22:20:42 10° NNE
SL-16 R/B 3.9 22:15:55 10° NW 22:19:46 21° W 22:19:46 21° W
Sich 1 4.4 22:18:18 10° NNW 22:20:54 35° NNW 22:20:54 35° NNW
Cosmos 540 Rocket 4.5 22:18:20 10° NNW 22:22:04 39° WNW 22:22:04 39° WNW
NOSS 3-1 (C) 4.2 22:20:55 10° NW 22:28:15 56° WSW 22:28:43 55° SW
Meteor 1-20 Rocket 4.4 22:24:02 10° NNW 22:29:20 69° NW 22:29:20 69° NW
Cosmos 2227 4.3 22:34:45 72° N 22:34:45 72° N 22:39:59 10° NNE
Cosmos 1633 Rocket 4.4 22:32:00 10° N 22:34:39 37° N 22:34:39 37° N
Aureole 1 Rocket 4.3 22:38:08 48° WNW 22:38:08 48° WNW 22:42:46 10° NNE
ALOS 2 4.2 22:49:56 31° NW 22:49:56 31° NW 22:52:27 10° NNW
Cosmos 1943 4.1 22:44:54 10° NW 22:48:59 40° WNW 22:48:59 40° WNW
Lacrosse 5 rocket 3.4 22:47:53 10° NW 22:49:48 25° NW 22:49:48 25° NW
ATLAS 5 CENTAUR R/B 4.1 22:53:11 10° NNW 22:57:26 25° NNE 23:02:15 10° E
Thor Agena Rocket 4.0 22:54:33 10° NNE 22:58:37 57° NNE 22:58:37 57° NNE
Cosmos 2154 Rocket 4.4 22:54:29 10° N 23:00:42 51° ENE 23:01:07 50° E
SeaSat 1 4.0 22:59:11 10° NNE 23:03:23 29° NW 23:04:24 26° WNW
Cosmos 2315 Rocket 4.4 23:10:31 53° W 23:10:45 53° WNW 23:16:59 10° N
Iridium 4 Rocket 4.3 23:11:57 44° NW 23:11:57 44° NW 23:16:01 10° N
Cosmos 2184 Rocket 3.9 23:06:17 10° N 23:12:34 85° NE 23:12:34 85° NE
Meteor 2-12 Rocket 4.4 23:15:52 10° N 23:21:57 73° ENE 23:21:57 73° ENE
Cosmos 968 Rocket 3.9 23:24:12 60° N 23:24:12 60° N 23:28:36 10° NNE
Cosmos 2263 Rocket 3.3 23:24:25 34° WNW 23:25:11 35° NW 23:30:18 10° NNE
USA 281 3.1 23:33:03 71° WSW 23:33:03 71° WSW 23:39:32 10° NNW
NOSS 2-2 (D) 4.3 23:31:09 10° NW 23:36:02 79° NW 23:36:02 79° NW
Cosmos 1844 Rocket 2.8 23:39:31 68° NE 23:39:31 68° NE 23:44:25 10° NNE
Cosmos 1486 Rocket 4.4 23:40:25 61° NNW 23:40:25 61° NNW 23:45:06 10° NNE
SL-4 R/B 3.7 23:41:44 35° ENE 23:41:44 35° ENE 23:44:41 10° E
Cosmos 1295 Rocket 4.4 23:35:56 10° N 23:42:13 84° E 23:42:22 83° ESE
Cosmos 2074 Rocket 4.2 23:37:32 10° NNW 23:43:22 56° W 23:43:22 56° W
Helios 1A 4.3 23:45:18 38° N 23:45:18 38° N 23:47:58 10° NNW
Meteor 2-6 Rocket 4.4 23:48:14 62° NW 23:48:14 62° NW 23:53:01 10° N
Cosmos 2082 Rocket 4.3 23:45:44 10° N 23:50:14 24° NE 23:54:43 10° E
SJ 16-02 3.5 23:56:01 19° E 23:56:01 19° E 23:58:31 10° NE
